Vorticity
5 5 4 5 5 6 5 6 4 -0 12 10 15 15 12 9 9 7 8 6 3 1 5 9 13 12 12 -0 13 13 12 24 22 28 30 26 20 18 32 26 25 16 22 26 21
5 5 4 5 5 5 6 7 1 3 9 12 13 12 9 5 7 10 7 8 7 8 11 6 8 7 2 -3 8 25 21 27 25 28 21 23 11 14 27 32 24 17 21 24 15
5 5 5 5 8 4 9 9 -1 4 11 17 12 10 4 5 -2 6 9 7 6 -2 -7 -3 1 -0 3 5 7 27 27 19 25 20 26 13 9 12 22 28 34 21 13 25 -11
5 6 5 7 6 3 6 5 -0 7 8 18 10 11 6 7 6 3 4 6 17 2 2 7 2 3 14 13 24 27 20 15 27 24 16 10 12 16 14 24 26 19 14 28 18
4 6 7 10 7 6 5 4 3 10 10 17 10 5 3 -0 4 5 5 7 -4 12 4 4 2 8 16 18 30 22 21 30 39 33 9 11 13 18 15 18 28 18 17 24 16
4 3 8 8 -2 -5 -2 10 3 11 16 13 9 1 4 4 5 7 0 6 0 -11 2 -2 4 11 12 32 31 17 26 29 36 13 3 4 5 18 14 14 31 21 24 19 -9
4 2 -9 -4 -7 16 3 11 3 6 18 10 9 -0 1 2 7 1 0 6 5 2 0 4 9 5 15 34 18 23 26 31 17 10 5 2 8 21 19 20 25 7 23 37 -1
6 1 9 17 7 3 18 5 4 7 18 8 12 3 3 4 -1 8 6 -3 2 1 1 7 9 11 37 30 13 30 16 31 9 2 1 11 10 19 19 35 27 10 25 31 -21
6 8 19 -14 0 10 11 6 8 4 17 8 10 5 5 1 7 1 -6 5 6 -1 -1 0 -3 8 43 22 26 15 17 20 12 -2 4 8 20 20 10 11 44 14 25 27 -7
8 13 -3 2 13 9 9 6 5 5 16 5 7 5 5 2 4 5 2 -1 1 2 2 -0 16 21 18 20 25 26 19 22 12 18 6 18 9 2 21 5 22 35 58 35 -30
6 8 1 0 8 8 7 8 5 10 20 6 0 3 4 1 2 2 1 0 5 -4 5 -3 16 12 38 18 35 17 15 9 8 9 14 18 11 -3 19 -3 5 46 45 32 26
8 9 -16 7 7 8 7 6 7 7 24 9 4 2 0 5 2 1 3 5 3 -5 5 2 12 32 30 19 35 15 14 5 17 16 21 5 -6 7 9 9 -1 21 32 19 -16
9 -0 -7 14 5 4 6 5 6 12 20 10 1 1 3 2 3 3 2 4 -4 4 6 4 11 38 26 18 27 13 8 16 -0 1 9 0 23 12 11 7 17 10 29 -2 42
7 -2 10 10 3 6 8 4 2 1 16 10 3 4 2 3 -7 1 7 6 7 -1 1 3 16 16 36 13 33 17 14 5 -0 9 14 12 -1 9 15 10 9 22 20 31 10
3 -7 24 5 4 7 8 3 9 9 8 0 3 4 -1 -3 1 6 2 5 3 2 4 2 17 15 29 20 41 15 6 -2 -7 11 12 8 16 7 21 4 21 3 -21 35 33
-1 16 17 6 2 7 7 6 4 6 17 14 3 2 -1 1 1 5 4 6 -1 -1 2 9 15 24 12 18 37 19 1 8 0 -9 4 11 9 5 20 18 10 -12 23 11 3
13 14 16 2 4 3 3 6 7 2 8 11 8 2 4 2 5 5 0 1 -1 -3 3 4 15 15 39 20 27 23 2 8 2 16 2 12 4 1 8 14 7 24 19 21 40
5 12 14 2 4 1 0 5 6 3 11 19 8 5 4 3 5 6 4 4 2 3 7 4 14 16 26 14 26 30 1 12 -1 4 11 12 14 7 0 12 -4 19 24 3 19
4 6 29 0 2 1 5 4 6 5 5 14 8 5 4 5 7 4 6 3 3 2 9 10 14 10 17 19 14 32 14 2 3 0 3 11 14 10 15 7 6 -1 24 9 13
14 5 2 17 -3 2 3 6 5 7 7 14 9 6 2 7 6 5 4 3 2 4 3 2 4 26 22 17 10 28 22 18 26 3 7 6 8 8 4 8 3 13 26 26 5
1 14 1 3 11 5 4 5 2 3 9 12 8 3 4 8 4 4 2 3 4 4 6 8 15 7 19 21 13 19 32 7 7 14 5 0 6 8 9 12 23 -4 35 31 16
7 9 2 -4 -9 18 9 7 10 5 7 12 7 2 6 8 4 6 2 4 3 4 7 1 6 17 25 14 17 11 27 17 12 10 9 5 7 2 4 -1 21 15 38 18 20
4 6 3 -1 -3 1 7 -1 5 7 7 9 5 4 9 5 5 6 2 2 3 4 2 1 1 10 21 19 14 12 17 31 8 6 8 -4 12 5 2 2 8 -14 39 22 31
16 8 3 4 3 14 4 11 8 6 7 7 1 9 6 4 4 5 3 2 3 4 5 10 14 19 21 7 5 11 19 24 14 2 6 7 16 6 2 3 8 7 33 13 19
7 16 8 7 1 14 3 10 6 7 8 8 3 5 3 5 5 5 3 3 3 3 7 10 18 23 17 11 12 10 15 26 28 9 2 4 15 8 5 8 7 2 31 39 16
9 9 19 13 5 10 8 6 5 8 5 7 9 -0 3 6 5 4 2 3 5 4 7 6 6 21 19 13 11 10 16 13 19 24 8 3 8 9 9 6 12 2 18 47 13
8 22 9 -1 6 7 10 11 6 8 10 10 10 2 7 4 4 4 1 3 4 4 9 19 14 14 17 18 7 14 16 21 22 15 19 12 -0 5 9 4 7 9 12 51 11
Height
5837 5835 5831 5828 5825 5821 5817 5814 5809 5805 5799 5794 5790 5786 5783 5780 5776 5774 5770 5766 5760 5753 5744 5735 5725 5714 5698 5682 5663 5641 5621 5603 5597 5584 5580 5569 5562 5557 5556 5557 5564 5570 5582 5595 5609
5834 5832 5829 5826 5823 5819 5815 5811 5807 5801 5795 5791 5787 5783 5780 5777 5773 5770 5765 5760 5754 5747 5740 5733 5723 5706 5688 5667 5645 5626 5608 5593 5585 5576 5568 5562 5556 5554 5550 5551 5557 5565 5575 5587 5602
5831 5828 5826 5823 5820 5816 5812 5808 5804 5798 5792 5787 5784 5781 5777 5774 5770 5766 5760 5756 5750 5743 5735 5726 5714 5698 5678 5655 5632 5611 5596 5584 5576 5568 5563 5557 5556 5551 5548 5547 5552 5558 5568 5581 5596
5829 5825 5823 5820 5817 5813 5809 5805 5800 5795 5789 5785 5781 5778 5774 5771 5768 5762 5756 5752 5746 5739 5729 5718 5704 5688 5667 5643 5618 5602 5584 5574 5569 5563 5558 5556 5553 5550 5549 5544 5548 5555 5564 5575 5591
5825 5822 5820 5817 5814 5810 5806 5802 5797 5792 5786 5782 5778 5775 5771 5768 5764 5760 5754 5748 5740 5732 5722 5709 5694 5678 5656 5632 5607 5592 5579 5569 5561 5558 5557 5555 5552 5549 5549 5548 5550 5557 5563 5570 5586
5821 5818 5816 5814 5810 5808 5803 5799 5793 5788 5783 5779 5775 5772 5768 5765 5760 5756 5749 5741 5733 5724 5712 5699 5684 5666 5644 5619 5598 5584 5570 5565 5557 5556 5556 5556 5552 5549 5550 5552 5554 5558 5562 5569 5586
5816 5814 5811 5810 5806 5804 5799 5795 5790 5785 5780 5776 5772 5769 5766 5763 5757 5752 5745 5737 5728 5717 5706 5692 5673 5655 5629 5609 5589 5578 5568 5561 5558 5557 5557 5556 5553 5549 5548 5550 5555 5558 5558 5571 5582
5811 5809 5806 5803 5801 5799 5795 5790 5786 5781 5777 5773 5769 5766 5762 5758 5754 5745 5739 5733 5723 5712 5700 5684 5667 5646 5622 5596 5583 5575 5568 5562 5560 5559 5559 5556 5553 5549 5548 5549 5553 5559 5561 5565 5577
5805 5803 5801 5798 5796 5793 5790 5786 5782 5777 5774 5769 5766 5762 5758 5753 5748 5744 5737 5728 5717 5706 5695 5679 5659 5641 5617 5603 5588 5575 5571 5567 5562 5561 5560 5556 5553 5551 5550 5549 5551 5556 5560 5564 5579
5800 5797 5795 5793 5790 5787 5784 5781 5778 5774 5770 5766 5762 5761 5755 5749 5744 5738 5731 5722 5712 5702 5690 5674 5656 5635 5613 5600 5589 5579 5572 5569 5566 5563 5560 5557 5555 5553 5552 5552 5552 5553 5556 5566 5577
5794 5792 5788 5787 5784 5782 5780 5776 5774 5771 5766 5762 5759 5755 5750 5746 5742 5735 5727 5718 5708 5698 5685 5669 5650 5629 5608 5593 5585 5579 5575 5571 5569 5565 5562 5559 5559 5557 5556 5554 5555 5555 5558 5566 5578
5786 5784 5782 5781 5779 5777 5775 5771 5768 5765 5761 5757 5755 5752 5748 5744 5738 5731 5724 5715 5704 5693 5678 5664 5646 5625 5605 5594 5587 5583 5579 5574 5572 5567 5565 5563 5561 5560 5560 5557 5559 5559 5562 5570 5582
5778 5775 5778 5775 5773 5772 5770 5767 5763 5760 5757 5754 5751 5748 5745 5742 5735 5729 5720 5710 5700 5689 5676 5660 5639 5620 5607 5597 5587 5585 5583 5579 5575 5572 5569 5566 5564 5564 5563 5562 5563 5564 5566 5573 5581
5771 5770 5771 5770 5770 5766 5765 5763 5759 5755 5753 5751 5748 5745 5741 5735 5731 5723 5715 5707 5696 5684 5671 5657 5636 5622 5609 5597 5591 5586 5585 5582 5579 5576 5572 5570 5569 5566 5566 5564 5565 5569 5571 5574 5582
5764 5767 5765 5763 5763 5761 5760 5758 5755 5752 5749 5748 5744 5740 5736 5732 5725 5720 5713 5701 5691 5682 5671 5657 5640 5627 5611 5601 5591 5589 5586 5585 5582 5579 5576 5573 5572 5570 5569 5571 5569 5572 5574 5577 5583
5759 5761 5760 5758 5757 5756 5754 5753 5751 5750 5745 5743 5740 5737 5733 5727 5721 5715 5708 5699 5688 5676 5665 5652 5636 5619 5603 5598 5591 5588 5586 5585 5585 5582 5580 5577 5574 5572 5573 5573 5575 5574 5573 5577 5584
5753 5754 5754 5753 5751 5750 5749 5748 5747 5743 5742 5739 5735 5733 5729 5724 5719 5713 5705 5696 5688 5677 5664 5651 5637 5623 5612 5599 5592 5588 5587 5586 5587 5585 5582 5579 5577 5575 5576 5575 5575 5572 5572 5574 5580
5745 5747 5748 5748 5746 5745 5745 5744 5742 5739 5736 5732 5730 5729 5725 5720 5715 5709 5701 5692 5682 5671 5661 5650 5636 5622 5607 5600 5594 5589 5588 5587 5586 5585 5584 5581 5580 5577 5577 5576 5573 5572 5572 5573 5578
5738 5739 5740 5741 5741 5740 5740 5739 5738 5735 5732 5728 5726 5725 5721 5716 5711 5704 5696 5688 5679 5669 5657 5644 5630 5618 5609 5600 5596 5589 5586 5586 5586 5586 5585 5584 5582 5581 5578 5577 5576 5574 5571 5573 5579
5730 5731 5733 5734 5734 5734 5735 5734 5732 5729 5727 5724 5722 5720 5716 5711 5706 5699 5691 5684 5675 5665 5651 5642 5630 5618 5606 5598 5592 5590 5587 5586 5584 5585 5585 5584 5582 5580 5580 5579 5578 5578 5578 5580 5585
5722 5724 5726 5727 5728 5728 5728 5729 5727 5724 5722 5721 5717 5715 5711 5707 5702 5695 5688 5681 5671 5661 5650 5639 5627 5617 5607 5601 5595 5588 5584 5584 5583 5583 5583 5583 5583 5582 5579 5579 5576 5575 5577 5581 5585
5714 5716 5719 5721 5724 5723 5722 5722 5721 5719 5718 5716 5713 5710 5707 5702 5697 5691 5684 5677 5668 5659 5649 5638 5626 5616 5607 5598 5593 5586 5582 5581 5580 5582 5582 5583 5583 5580 5580 5578 5578 5577 5575 5576 5580
5705 5708 5711 5714 5715 5716 5716 5715 5715 5714 5713 5710 5708 5706 5703 5697 5693 5686 5680 5674 5664 5654 5646 5635 5626 5615 5604 5599 5591 5585 5580 5579 5580 5579 5580 5581 5582 5580 5578 5579 5578 5577 5577 5578 5582
5697 5699 5703 5704 5707 5708 5709 5708 5708 5708 5707 5705 5703 5701 5699 5694 5687 5680 5675 5670 5660 5652 5642 5632 5622 5612 5604 5596 5589 5583 5579 5576 5576 5577 5578 5578 5579 5579 5578 5578 5576 5576 5578 5577 5580
5688 5692 5694 5696 5698 5700 5701 5702 5701 5701 5701 5699 5697 5697 5693 5688 5682 5676 5671 5665 5656 5647 5638 5630 5620 5611 5602 5594 5588 5582 5577 5575 5573 5574 5574 5577 5578 5577 5578 5577 5578 5577 5574 5575 5578
5680 5685 5687 5689 5689 5692 5694 5693 5694 5694 5694 5692 5692 5691 5688 5683 5677 5672 5667 5660 5653 5643 5634 5627 5618 5608 5599 5593 5586 5580 5575 5573 5571 5569 5570 5573 5576 5575 5576 5577 5576 5575 5573 5571 5575
5673 5676 5679 5681 5682 5685 5686 5687 5687 5686 5687 5686 5685 5685 5682 5677 5672 5666 5662 5655 5647 5638 5631 5624 5613 5604 5597 5591 5584 5578 5572 5568 5567 5567 5566 5569 5573 5574 5575 5576 5576 5574 5571 5568 5573